www.pogodaiklimat.ru
ПОГОДА на Базе ВВС Эндрюс
Время
и дата
13:55 29.01
14:16 29.01
14:21 29.01
14:55 29.01
15:55 29.01
16:25 29.01
16:55 29.01
17:25 29.01
17:55 29.01
18:40 29.01
18:55 29.01
19:55 29.01
20:55 29.01
21:55 29.01
22:55 29.01
23:55 29.01
00:55 30.01
01:55 30.01
02:55 30.01
03:55 30.01
04:55 30.01
05:55 30.01
06:55 30.01
07:55 30.01
08:55 30.01
09:55 30.01
10:55 30.01
11:55 30.01
12:55 30.01
13:55 30.01
14:55 30.01
15:55 30.01
16:55 30.01
17:55 30.01
18:55 30.01
19:55 30.01
20:55 30.01
21:55 30.01
22:55 30.01
23:55 30.01
00:55 31.01
01:55 31.01
02:53 31.01
03:56 31.01
04:55 31.01
05:55 31.01
06:55 31.01
07:08 31.01
Ветер
(напр.,м/с)
Видим. Явления Облачность Т
(С)
Тd
(С)
f
(%)
Тe
(С)
Тes
(С)
Комфортность P
(гПа)
Po
(гПа)
Тmin
(С)
Tmax
(С)
R
(мм)
R24
(мм)
S
(см)
ЮЗ 6 16 км 8/2 1800 m
[Ac]
+7.9 +3.4 73 +4 +5 1021.1 1009.8
Ю 6 16 км слабый дождь 10/0 2250 m
[Ac As]
+8.0 +4.0 76 +4 +5 1020.8 1009.5
Ю 7 16 км 10/0 2100 m
[Ac]
+8.0 +4.0 76 +4 +4 1020.4 1009.2
ЮЗ 6 16 км 10/10 1800 м +7.4 +4.5 82 +3 +3 1020.8 1009.5
ЮЗ 5 16 км 8/2 1260 m
[Ac]
+7.6 +5.2 85 +4 +4 1021.1 1009.8 0.3
Ю 6 16 км 8/8 +8.0 +6.0 87 +4 +4 1021.5 1010.2
ЮЗ 5 16 км 10/10 450 м +7.6 +5.7 88 +4 +4 1021.5 1010.2
ЮЗ 4 16 км 10/10 420 м +8.0 +6.0 87 +5 +5 1021.5 1010.2
ЮЗ 4 16 км 10/10 420 м +7.6 +6.1 90 +4 +4 1021.5 1010.2
ЮЗ 3 16 км 10/10
[Ac]
+7.0 +6.0 93 +4 +4 1021.8 1010.5
ЮЗ 4 16 км 10/5 450 m
[Ac]
+7.4 +5.7 89 +4 +4 1022.2 1010.8 +7.3 +8.0 0.3
ЮЗ 3 16 км 8/0 2550 m
[Ac]
+7.3 +5.1 86 +4 +4 1022.8 1011.5
ЮЗ 2 16 км ясно +6.2 +4.8 91 +4 +4 1022.8 1011.5
ЮЗ 2 16 км ясно +5.3 +4.9 97 +3 +3 1022.8 1011.5
штиль 0 16 км ясно +5.1 +5.0 99 +4 +4 1022.8 1011.5
ЮЗ 2 16 км ясно +4.8 +4.4 97 +2 +2 1022.5 1011.2
штиль 0 16 км ясно +5.2 +4.5 95 +4 +4 1022.5 1011.2 +4.4 +7.5
штиль 0 16 км ясно +4.4 +4.3 99 +3 +3 1020.8 1009.5
штиль 0 16 км 8/8 1950 м +4.4 +4.3 99 +3 +3 1022.5 1011.2
С 2 16 км 10/10 1800 м +4.2 +4.1 99 +1 +1 1022.2 1010.8
штиль 0 16 км 10/10 1800 м +4.6 +4.5 99 +3 +3 1022.5 1011.2
штиль 0 16 км 8/8 1800 м +4.7 +4.6 99 +3 +3 1022.5 1011.2
штиль 0 16 км 10/2 1800 m
[Ac]
+4.7 +4.6 99 +3 +3 1022.2 1010.8 +3.4 +5.5 0.5
штиль 0 16 км 10/0 4200 m
[Ac]
+4.9 +4.5 97 +4 +4 1022.5 1011.2
штиль 0 16 км 2/0 4200 m
[Ac]
+5.8 +5.2 96 +5 +5 1023.5 1012.2
штиль 0 16 км ясно +8.9 +5.1 77 +8 +11 1023.2 1011.8
Ю 3 16 км 2/0 3900 m
[Ac]
+11.3 +4.3 62 +10 +13 1022.8 1011.5
штиль 0 16 км ясно +12.3 +3.5 55 +12 +20 1021.8 1010.5
СЗ 2 16 км 5/5 1440 м +13.0 +4.2 55 +12 +16 1020.7 1009.5 +4.3 +13.8
ЮВ 2 16 км ясно +14.8 +4.8 51 +15 +21 1019.0 1007.8
Ю 2 16 км 2/0 3000 m
[Ac]
+15.5 +4.8 49 +16 +20 1018.7 1007.5
Ю 3 16 км ясно +14.9 +4.8 51 +14 +17 1018.7 1007.5
Ю 3 16 км ясно +13.3 +5.2 58 +12 +13 1019.4 1008.2
Ю 2 16 км ясно +11.6 +4.8 63 +11 +11 1019.7 1008.5
ЮВ 2 16 км ясно +7.7 +4.3 79 +6 +6 1019.8 1008.5 +7.6 +15.6
ЮВ 3 16 км ясно +7.7 +4.3 79 +5 +5 1019.8 1008.5
Ю 3 16 км ясно +8.1 +4.7 79 +5 +5 1019.4 1008.2
Ю 3 16 км ясно +7.2 +5.0 86 +4 +4 1019.4 1008.2
Ю 4 16 км ясно +6.6 +5.2 91 +3 +3 1019.4 1008.2
ЮЗ 3 16 км ясно +7.0 +6.3 95 +4 +4 1019.0 1007.8
ЮЗ 2 16 км ясно +7.2 +7.1 99 +5 +5 1018.7 1007.5 +6.6 +8.1
штиль 0 16 км ясно +6.9 +6.8 99 +6 +6 1018.3 1007.2
Ю 3 16 км ясно +6.2 +6.1 99 +3 +3 1017.3 1006.1
ЮЗ 2 11 км 2/0 5400 m
[Ac]
+6.6 +6.5 99 +4 +4 1017.6 1006.5
СЗ 3 16 км 5/5 270 м +7.4 +7.3 99 +4 +4 1018.7 1007.5
С 4 16 км 8/0 3600 m
[Ac]
+7.8 +7.7 99 +4 +4 1020.4 1009.2
С 5 16 км 2/0 4500 m
[Ac]
+7.2 +5.3 88 +3 +3 1021.1 1009.8 +3.8 +7.8
С 4 16 км слабый дождь 2/2 1800 m
[Ns]
+7.0 +4.0 81 +3 +3 1021.5 1010.2
Местоположение метеостанции Andrews Air Force Base: широта 38.8167 долгота -76.8500 высота над уровнем моря 86 м.
В архиве по умолчанию представлена погода на Базе ВВС Эндрюс за последние 1-2 суток. Обновление информации о фактической погоде в базе происходит ежечасно! Архивные данные за месяц целиком и за предыдущие месяцы Вы можете получить, выбрав интересующий диапазон дат из раскрывающегося списка и нажав кнопку "Ввод!".
Внимание! Архив погоды МЕТАР в базе сайта по станциям, не включенным в климатический монитор, хранится не более 60 дней. Нет смысла пытаться выбрать более раннюю дату.
*Определитесь, кто Вы:
Внимание! Время в таблицах - местное (без учета летнего времени). Для получения всемирного времени необходимо вычесть поправку, которая равна -5 ч.
Смотрите также архив погоды в соседних городах и на ближайших метеорологических станциях:
Партнеры нашего сайта:      
Пояснения к столбцам:
  • Ветер - указаны скорость ветра в м/с - средняя за 10 мин, порывы в срок и между сроками (в фигурных скобках) и направление, откуда дует ветер: С - северный,
  • СВ - северо-восточный, В - восточный, ЮВ - юго-восточный, Ю - южный, ЮЗ - юго-западный, З - западный, СЗ - северо-западный.
  • Видимость - горизонтальная дальность видимости в метрах или километрах. При видимости от 1 до 10 км при отсутствии осадков обычно наблюдается дымка, при ухудшении видимости до 1 км и менее - туман. В сухую погоду видимость может ухудшаться дымом, пылью или мглою.
  • Явления - указаны атмосферные явления, наблюдавшиеся в срок или в последний час перед сроком; фигурными скобками обозначены явления, наблюдавшиеся между сроками (за 1-3 часа до срока); квадратными скобками обозначены град или гололедные отложения с указанием их диаметра в мм.
  • Облачность - указаны через наклонную черту общая и нижняя облачность в баллах и высота нижней границы облаков в метрах; квадратными скобками обозначены формы облаков: Ci - перистые, Cs - перисто-слоистые, Cc - перисто-кучевые, Ac - высококучевые, As - высокослоистые, Sc - слоисто-кучевые, Ns - слоисто-дождевые, Cu - кучевые, Cb - кучево-дождевые. Подробнее классификацию облаков см. в Атласе облаков (PDF).
  • T - Температура воздуха - температура, измеренная на высоте 2 м над землей.
  • Td - Температура точки росы - температура, при понижении до которой содержащийся в воздухе водяной пар достигнет насыщения.
  • f - Относительная влажность воздуха - влажноcть воздуха, измеренная на высоте 2 м над землей.
  • Te - Эффективная температура - температура, которую ощущает одетый по сезону человек в тени. Характеристика душности погоды. При расчете учитывается влияние влажности воздуха и скорости ветра на теплоощущения человека.
  • Tes - Эффективная температура на солнце - температура, которую ощущает человек, с поправкой на солнечный нагрев. Характеристика знойности погоды. Зависит от высоты солнца над горизонтом, облачности и скорости ветра. Ночью, в пасмурную погоду, а также при ветре 12 м/с и более поправка равна нулю.
  • P - Атмосферное давление - приведенное к уровню моря атмосферное давление.
  • Po - Атмосферное давление - измеренное на уровне метеостанции атмосферное давление.
  • Tmin - Минимальная температура - минимум температуры воздуха на высоте 2 м над землей.
  • Tmax - Максимальная температура - максимум температуры воздуха на высоте 2 м над землей.
  • R - Количество осадков - Количество выпавших осадков за период времени, мм. При наведении курсора мыши на число - период времени, за который выпало указанное количество осадков.
  • R24 - Количество осадков - Количество выпавших осадков за 24 часа, мм.
  • S - Снежный покров - Высота снежного покрова, см. При наведении курсора мыши на число - состояние снежного покрова и степень покрытия местности в баллах.